Date String (YYYY-MM-DD hh:mm:ss) UTC,Instrument flags,Ambient pressure (hPa),Sample flow (lpm),Bypass flow (lpm),Sample temperature (°C),Ambient temperature (°C),ASC tube jacket temperature (°C),LED temperature (°C),Box temperature (°C),Sample RH (%),Span deviation,Mass concentration (μg/m³),Mass concentration (μg/m³),Mass concentration (μg/m³)
DateTimeUTC,F1_M11,P_M11,Q1_M11,Q2_M11,T1_M11,T2_M11,T3_M11,T4_M11,T5_M11,U1_M11,ZSPAN_M11,X0_M11,X2_M11,X1_M11
2023-04-26 23:00:00,,0829.9,5.00,0.00,24.8,23.6,00.0,33.1,26.4,20.5,0000.0,0006.34,0003.30,0003.12
2023-04-26 23:01:00,,0829.9,5.00,0.00,24.8,23.6,00.0,33.1,26.3,20.5,0000.0,0006.63,0003.30,0003.11
2023-04-26 23:02:00,,0829.9,5.00,0.00,24.8,23.6,00.0,33.1,26.3,20.4,0000.0,0006.45,0003.28,0003.10
2023-04-26 23:03:00,,0829.9,5.00,0.00,24.8,23.5,00.0,33.1,26.3,20.3,0000.0,0006.53,0003.30,0003.10
2023-04-26 23:04:00,,0830.0,5.00,0.00,24.7,23.2,00.0,33.1,26.0,20.4,0000.0,0006.66,0003.32,0003.10
2023-04-26 23:05:00,,0829.9,4.99,0.00,24.5,22.8,00.0,33.1,25.6,20.4,0000.0,0006.87,0003.33,0003.10
2023-04-26 23:06:00,,0829.9,5.00,0.00,24.4,22.4,00.0,33.0,25.5,20.7,0000.0,0006.94,0003.34,0003.09
2023-04-26 23:07:00,,0829.9,5.01,0.00,24.3,22.3,00.0,33.0,25.3,20.6,0000.0,0006.98,0003.35,0003.10
2023-04-26 23:08:00,,0829.8,5.02,0.00,24.3,22.2,00.0,33.0,25.4,20.7,0000.0,0007.01,0003.36,0003.11
2023-04-26 23:09:00,,0829.8,5.00,0.00,24.3,22.1,00.0,32.9,25.4,21.0,0000.0,0007.01,0003.39,0003.12
2023-04-26 23:10:00,,0829.8,5.00,0.00,24.2,22.1,00.0,32.9,25.5,20.7,0000.0,0006.17,0003.41,0003.13
2023-04-26 23:11:00,,0829.9,5.00,0.00,24.2,22.1,00.0,32.9,25.5,20.9,0000.0,0005.61,0003.43,0003.13
2023-04-26 23:12:00,,0829.9,5.00,0.00,24.2,22.1,00.0,32.8,25.4,21.3,0000.0,0005.25,0003.43,0003.14
2023-04-26 23:13:00,,0829.8,4.99,0.00,24.1,21.9,00.0,32.8,25.2,21.4,0000.0,0005.29,0003.43,0003.13
2023-04-26 23:14:00,,0829.8,5.00,0.00,24.1,21.7,00.0,32.7,25.0,22.0,0000.0,0005.21,0003.41,0003.11
2023-04-26 23:15:00,,0829.8,5.00,0.00,24.0,21.5,00.0,32.7,24.9,21.5,0000.0,0005.16,0003.40,0003.11
2023-04-26 23:16:00,,0829.8,5.01,0.00,23.9,21.3,00.0,32.6,24.8,22.3,0000.0,0004.97,0003.38,0003.09
2023-04-26 23:17:00,,0829.8,4.99,0.00,23.8,21.3,00.0,32.6,24.7,22.2,0000.0,0005.08,0003.37,0003.09
2023-04-26 23:18:00,,0829.8,5.00,0.00,23.7,21.1,00.0,32.5,24.6,21.8,0000.0,0006.23,0003.37,0003.09
2023-04-26 23:19:00,,0829.8,4.99,0.00,23.6,21.0,00.0,32.4,24.6,21.8,0000.0,0006.13,0003.34,0003.07
2023-04-26 23:20:00,,0829.8,5.00,0.00,23.5,21.0,00.0,32.4,24.6,21.9,0000.0,0006.41,0003.30,0003.02
2023-04-26 23:21:00,,0829.8,5.01,0.00,23.5,21.1,00.0,32.3,24.6,22.3,0000.0,0006.47,0003.28,0002.99
2023-04-26 23:22:00,,0829.8,5.01,0.00,23.5,21.1,00.0,32.3,24.6,22.6,0000.0,0006.33,0003.26,0002.97
2023-04-26 23:23:00,,0829.8,5.00,0.00,23.4,21.1,00.0,32.2,24.5,22.5,0000.0,0006.37,0003.26,0002.95
2023-04-26 23:24:00,,0829.8,5.00,0.00,23.3,21.1,00.0,32.2,24.5,22.5,0000.0,0006.37,0003.26,0002.95
2023-04-26 23:25:00,,0829.8,5.00,0.00,23.3,21.1,00.0,32.1,24.5,23.0,0000.0,0006.46,0003.27,0002.97
2023-04-26 23:26:00,,0829.8,5.00,0.00,23.3,21.1,00.0,32.1,24.5,23.4,0000.0,0006.45,0003.26,0002.98
2023-04-26 23:27:00,,0829.7,4.99,0.00,23.2,20.9,00.0,32.0,24.4,22.8,0000.0,0006.37,0003.25,0002.98
2023-04-26 23:28:00,,0829.7,4.98,0.00,23.2,20.9,00.0,32.0,24.4,22.6,0000.0,0006.35,0003.24,0002.98
2023-04-26 23:29:00,,0829.8,5.01,0.00,23.2,20.9,00.0,32.0,24.5,23.4,0000.0,0005.72,0003.22,0002.94
2023-04-26 23:30:00,,0829.7,5.01,0.00,23.2,20.9,00.0,31.9,24.4,22.7,0000.0,0005.27,0003.23,0002.93
2023-04-26 23:31:00,,0829.7,5.00,0.00,23.2,20.8,00.0,31.9,24.4,22.7,0000.0,0005.07,0003.24,0002.96
2023-04-26 23:32:00,,0829.8,5.00,0.00,23.2,20.8,00.0,31.8,24.4,22.4,0000.0,0004.71,0003.25,0002.99
2023-04-26 23:33:00,,0829.8,5.01,0.00,23.1,20.9,00.0,31.8,24.4,22.5,0000.0,0004.65,0003.25,0003.04
2023-04-26 23:34:00,,0829.7,5.00,0.00,23.1,20.9,00.0,31.8,24.4,22.9,0000.0,0004.56,0003.24,0003.05
2023-04-26 23:35:00,,0829.8,4.99,0.00,23.1,20.9,00.0,31.7,24.4,23.1,0000.0,0004.52,0003.23,0003.05
2023-04-26 23:36:00,,0829.8,4.99,0.00,23.1,20.9,00.0,31.7,24.4,22.9,0000.0,0004.40,0003.22,0003.07
2023-04-26 23:37:00,,0829.7,5.00,0.00,23.1,20.7,00.0,31.7,24.1,22.6,0000.0,0004.44,0003.25,0003.10
2023-04-26 23:38:00,,0829.7,5.01,0.00,23.0,20.6,00.0,31.6,24.0,22.6,0000.0,0004.60,0003.29,0003.14
2023-04-26 23:39:00,,0829.7,5.01,0.00,23.0,20.6,00.0,31.6,24.1,22.7,0000.0,0004.66,0003.33,0003.17
2023-04-26 23:40:00,,0829.7,5.00,0.00,23.0,20.7,00.0,31.6,24.1,22.7,0000.0,0004.54,0003.35,0003.19
2023-04-26 23:41:00,,0829.7,5.00,0.00,23.0,20.6,00.0,31.6,24.0,23.2,0000.0,0004.45,0003.33,0003.19
2023-04-26 23:42:00,,0829.7,5.00,0.00,22.9,20.4,00.0,31.5,23.8,23.0,0000.0,0004.48,0003.33,0003.18
2023-04-26 23:43:00,,0829.7,4.99,0.00,22.8,20.3,00.0,31.5,23.8,23.4,0000.0,0004.46,0003.32,0003.17
2023-04-26 23:44:00,,0829.7,4.99,0.00,22.8,20.3,00.0,31.4,23.9,22.8,0000.0,0004.50,0003.34,0003.18
2023-04-26 23:45:00,,0829.7,5.00,0.00,22.7,20.3,00.0,31.4,23.8,22.9,0000.0,0004.55,0003.37,0003.21
2023-04-26 23:46:00,,0829.7,5.01,0.00,22.7,20.3,00.0,31.4,23.7,23.2,0000.0,0004.62,0003.39,0003.23
2023-04-26 23:47:00,,0829.7,5.00,0.00,22.6,20.1,00.0,31.3,23.6,23.3,0000.0,0004.74,0003.43,0003.24
2023-04-26 23:48:00,,0829.7,5.01,0.00,22.5,20.1,00.0,31.3,23.5,23.5,0000.0,0004.73,0003.43,0003.24
2023-04-26 23:49:00,,0829.7,5.00,0.00,22.5,20.0,00.0,31.2,23.4,23.2,0000.0,0004.66,0003.41,0003.22
2023-04-26 23:50:00,,0829.7,5.00,0.00,22.4,19.9,00.0,31.2,23.3,23.6,0000.0,0004.67,0003.40,0003.21
2023-04-26 23:51:00,,0829.7,5.00,0.00,22.3,19.8,00.0,31.1,23.2,24.3,0000.0,0004.80,0003.42,0003.20
2023-04-26 23:52:00,,0829.7,5.00,0.00,22.2,19.7,00.0,31.1,23.1,24.0,0000.0,0004.90,0003.44,0003.21
2023-04-26 23:53:00,,0829.7,5.00,0.00,22.2,19.7,00.0,31.0,23.1,23.6,0000.0,0004.93,0003.44,0003.20
2023-04-26 23:54:00,,0829.7,5.01,0.00,22.1,19.6,00.0,31.0,23.0,24.0,0000.0,0004.97,0003.44,0003.19
2023-04-26 23:55:00,,0829.7,5.00,0.00,22.0,19.5,00.0,30.9,22.9,24.1,0000.0,0005.14,0003.43,0003.17
2023-04-26 23:56:00,,0829.7,5.00,0.00,22.0,19.4,00.0,30.9,22.8,24.6,0000.0,0005.25,0003.41,0003.12
2023-04-26 23:57:00,,0829.7,5.00,0.00,21.9,19.2,00.0,30.8,22.8,24.3,0000.0,0005.30,0003.40,0003.08
2023-04-26 23:58:00,,0829.7,5.00,0.00,21.8,19.1,00.0,30.7,22.6,24.5,0000.0,0005.14,0003.35,0003.01
2023-04-26 23:59:00,,0829.7,4.99,0.00,21.7,18.9,00.0,30.7,22.5,24.9,0000.0,0005.08,0003.31,0002.94
